www.pogodaiklimat.ru

Погода и климат >> Архив погоды >> Гана >> Yendi


ПОГОДА в Yendi

  • Прогноз погоды в Yendi
  • Монитор погоды в Yendi
  • Климат города

АРХИВ ПОГОДЫ в Yendi

Время (UTC), дата Ветер
(напр.,м/с)
 
Видим.   Явления Облачность Т
(С)
Тd
(С)
f
(%)
Тe
(С)
Тes
(С)
Комфортность P
(гПа)
Po
(гПа)
Тmin
(С)
Tmax
(С)
R
(мм)
R24
(мм)
S
(см)
00 14.09 штиль 0 12 км 5/4
[Cb calv Ci sp]
+25.0 +24.0 94 +34 +34 очень
душно
1011.4 1011.0
03 14.09 штиль 0 12 км 8/0
[Cs]
+24.0 +23.3 96 +32 +32 очень
душно
1011.2 1011.0
12 14.09 ЮЗ 1 16 км 8/8 360 м
[Cu med, cong Ci sp]
+30.5 +24.9 72 +44 +49 опасность
перегрева
1012.5 1013.0
21 14.09 штиль 0 12 км 8/0
[Ac trans Cs]
+26.6 +25.3 93 +39 +39 очень
душно
1011.8 1012.0
00 15.09 штиль 0 12 км 5/0
[Ac trans Ci sp]
+26.1 +25.0 94 +37 +37 очень
душно
1012.8 1013.0
06 15.09 штиль 0 12 км 9/0
[Ac trans]
+25.3 +24.2 94 +35 +35 очень
душно
1013.0 1013.0 +24.5 0.0
09 15.09 Ю 1 14 км 8/5 360 м
[Cu Sc Ac trans]
+28.0 +24.8 83 +40 +44 очень
душно
1014.3 1014.0
12 15.09 З 2 25 км 8/8 480 м
[Cu med, cong]
+30.9 +25.0 71 +44 +49 опасность
перегрева
1012.8 1013.0
15 15.09 ЮЗ 2 14 км гроза без осадков 8/5 360 м
[Cb cap Ac trans Ci sp]
+30.0 +23.9 70 +41 +45 опасность
перегрева
1010.5 1011.0
18 15.09 ЮЗ 1 8000 м гроза, ливневой дождь 9/5 360 м
[Cb cap Ac trans]
+24.2 +22.8 92 +32 +32 очень
душно
1011.9 1012.0 +32.0 13
09 16.09 ЮВ 2 14 км 9/3 450 м
[Cu med, cong Ac trans]
+26.3 +24.3 89 +37 +41 очень
душно
1015.3 1015.0
12 16.09 ЮЗ 2 14 км 8/4 480 м
[Cu med, cong Ac trans]
+29.5 +24.2 73 +41 +49 опасность
перегрева
1013.9 1014.0
18 16.09 Ю 1 12 км {гроза, дождь} 8/0 300 м
[Ac trans]
+26.8 +24.6 88 +38 +38 очень
душно
1011.2 1011.0 +31.5 0.0
21 16.09 штиль 0 12 км зарница 8/1 900 м
[Cb cap Ac trans Ci fib]
+25.8 +24.4 92 +36 +36 очень
душно
1013.2 1013.0
03 17.09 ЮВ 1 12 км 8/3 330 м
[Sc Ac trans Cs]
+24.3 +23.6 96 +33 +33 очень
душно
1012.5 1013.0
09 17.09 Ю 1 17 км {гроза, дождь} 8/1 360 м
[Sc Ac trans Cs]
+25.4 +22.3 83 +33 +40 очень
душно
1013.7 1014.0
12 17.09 Ю 2 15 км {гроза, дождь} 6/4 480 м
[Cu med, cong Ac trans Ci sp]
+29.7 +25.3 77 +43 +55 опасность
перегрева
1011.9 1012.0 0.0
15 17.09 Ю 1 15 км 6/3 480 м
[Cu med, cong Ac trans]
+32.2 +25.6 68 +47 +53 опасность
перегрева
1008.9 1009.0
21 17.09 штиль 0 10 км гроза без осадков {дождь} 9/5 330 м
[Cb cap Ac trans]
+23.0 +21.9 94 +31 +31 очень
душно
1011.8 1012.0
03 18.09 штиль 0 10 км зарница 9/3 360 м
[Cb cap Ac trans]
+23.5 +23.0 97 +31 +31 очень
душно
1011.6 1012.0
06 18.09 штиль 0 12 км 9/0
[Ac trans Cs]
+24.2 +22.9 92 +32 +32 очень
душно
1011.9 1012.0 +21.8 15
09 18.09 ЮЗ 1 14 км 9/0 300 м
[Ac trans Cs]
+28.0 +24.9 83 +40 +48 очень
душно
1013.1 1013.0
12 18.09 СЗ 1 14 км 8/5 480 м
[Cu med, cong Ac trans Cs]
+31.5 +26.2 74 +48 +56 опасность
перегрева
1013.0 1013.0
15 18.09 ЮВ 1 8000 м гроза, ливневой дождь 9/5 330 м
[Cb cap Ac As]
+23.0 +22.3 96 +31 +34 очень
душно
1012.3 1012.0
18 18.09 10 км {гроза, дождь} 9/0
[Ac trans]
+22.5 +21.8 96 1010.9 1011.0 +32.8 13
21 18.09 В 1 10 км 9/9 330 м
[Sc]
+22.7 +22.1 96 +31 +31 очень
душно
1013.0 1013.0
00 19.09 Ю 1 10 км 9/3 330 м
[Sc Ac trans]
+22.5 +22.1 98 +30 +30 очень
душно
1012.9 1013.0
12 19.09 ЮЗ 2 14 км 8/4 480 м
[Cu med, cong Ac trans]
+29.3 +24.1 74 +41 +49 опасность
перегрева
1012.9 1013.0
18 19.09 штиль 0 15 км 8/3 900 м
[Cb cap Ac trans Cs]
+29.4 +26.5 84 +45 +45 опасность
перегрева
1010.3 1010.0 +31.5
21 19.09 штиль 0 12 км 8/0
[Ac trans Cs]
+26.3 +25.1 93 +38 +38 очень
душно
1011.8 1012.0
00 20.09 штиль 0 12 км 9/0
[Ac trans Cs]
+25.2 +24.5 96 +35 +35 очень
душно
1011.9 1012.0
03 20.09 штиль 0 12 км 9/0
[Ac trans Cs]
+24.8 +24.0 95 +34 +34 очень
душно
1010.6 1011.0
06 20.09 штиль 0 2800 м дымка 8/3 360 м
[Sc Ac trans Cs]
+24.7 +23.6 94 +34 +34 очень
душно
1011.9 1012.0 +23.4
09 20.09 Ю 1 15 км {туман} 8/8 360 м
[Cu Sc Ac trans Ci sp]
+29.0 +25.5 81 +43 +45 опасность
перегрева
1013.7 1014.0
12 20.09 ЮВ 1 15 км {туман} 8/8 480 м
[Cu med, cong]
+32.4 +25.2 66 +46 +51 опасность
перегрева
1012.0 1012.0
15 20.09 В 1 15 км 8/8 480 м
[Cb cap Ci sp]
+33.4 +25.4 63 +48 +51 опасность
перегрева
1008.7 1009.0
18 20.09 ЮВ 1 15 км гроза без осадков 8/4 360 м
[Cb cap Ac trans Cs]
+27.1 +21.9 73 +35 +35 очень
душно
1008.7 1009.0 +33.7

 

Местоположение метеостанции Yendi (Гана): широта 9.45 долгота -0.02 высота над уровнем моря 197 м.

В архиве по умолчанию представлена погода в Yendi за последнюю неделю. Архивные данные за месяц целиком и за предыдущие месяцы, начиная с января 2011 года, Вы можете получить, выбрав интересующий диапазон дат из раскрывающегося списка и нажав кнопку "Ввод!".


*Определитесь, кто Вы:
робот инопланетянин человек

Внимание! Время в таблицах - всемирное. Для получения местного времени необходимо прибавить поправку, которая в Yendi равна 1 ч.

Смотрите также архив погоды в соседних городах и на ближайших метеорологических станциях:

Погода в Tamale (Гана) (91 км)
Погода в Mango (Того) (116 км)
Погода в Niamtougou (Того) (128 км)
Погода в Kara (Того) (131 км)
Погода в Sokode (Того) (139 км)
Погода в Dapaon (Того) (163 км)
Погода в Kete-Krachi (Гана) (181 км)
Погода в Natitingou (Бенин) (181 км)
Погода в Navrongo (Гана) (200 км)
Погода в Po (Буркина-Фасо) (226 км)

Пояснения к столбцам:

Ветер - указаны скорость ветра в м/с - средняя за 10 мин, порывы в срок и между сроками (в фигурных скобках) и направление, откуда дует ветер: С - северный, СВ - северо-восточный, В - восточный, ЮВ - юго-восточный, Ю - южный, ЮЗ - юго-западный, З - западный, СЗ - северо-западный.
Видимость - горизонтальная дальность видимости в метрах или километрах. При видимости от 1 до 10 км при отсутствии осадков обычно наблюдается дымка, при ухудшении видимости до 1 км и менее - туман. В сухую погоду видимость может ухудшаться дымом, пылью или мглою.
Явления - указаны атмосферные явления, наблюдавшиеся в срок или в последний час перед сроком; фигурными скобками обозначены явления, наблюдавшиеся между сроками (за 1-3 часа до срока); квадратными скобками обозначены град или гололедные отложения с указанием их диаметра в мм.
Облачность - указаны через наклонную черту общая и нижняя облачность в баллах и высота нижней границы облаков в метрах; квадратными скобками обозначены формы облаков: Ci - перистые, Cs - перисто-слоистые, Cc - перисто-кучевые, Ac - высококучевые, As - высокослоистые, Sc - слоисто-кучевые, Ns - слоисто-дождевые, Cu - кучевые, Cb - кучево-дождевые. Подробнее классификацию облаков см. в Атласе облаков (PDF).
T - Температура воздуха - температура, измеренная на высоте 2 м над землей.
Td - Температура точки росы - температура, при понижении до которой содержащийся в воздухе водяной пар достигнет насыщения.
f - Относительная влажность воздуха - влажноcть воздуха, измеренная на высоте 2 м над землей.
Te - Эффективная температура - температура, которую ощущает одетый по сезону человек в тени. Характеристика душности погоды. При расчете учитывается влияние влажности воздуха и скорости ветра на теплоощущения человека.
Tes - Эффективная температура на солнце - температура, которую ощущает человек, с поправкой на солнечный нагрев. Характеристика знойности погоды. Зависит от высоты солнца над горизонтом, облачности и скорости ветра. Ночью, в пасмурную погоду, а также при ветре 12 м/с и более поправка равна нулю.
P - Атмосферное давление - приведенное к уровню моря атмосферное давление.
Po - Атмосферное давление - измеренное на уровне метеостанции атмосферное давление.
Tmin - Минимальная температура - минимум температуры воздуха на высоте 2 м над землей.
Tmax - Максимальная температура - максимум температуры воздуха на высоте 2 м над землей.
R - Количество осадков - Количество выпавших осадков за период времени, мм. При наведении курсора мыши на число - период времени, за который выпало указанное количество осадков.
R24 - Количество осадков - Количество выпавших осадков за 24 часа, мм.
S - Снежный покров - Высота снежного покрова, см. При наведении курсора мыши на число - состояние снежного покрова и степень покрытия местности в баллах.